Location: Dieterode
(51.2981°N, 10.1006°E)
Time: 13:44:36
(UTC+00:00)

Daily predictions for brighter satellites

Satellite Brightness Start Highest point End
(mag) Time Altitude Azimuth Time Altitude Azimuth Time Altitude Azimuth
ATLAS 3B R/B 3.9 17:55:20 10° W 18:01:58 42° NNW 18:09:01 10° NE
GEOS 3 Rocket 3.8 17:57:53 10° NE 18:03:13 59° SE 18:08:32 10° SSW
Cosmos 1536 2.7 18:01:14 10° S 18:05:10 77° E 18:09:06 10° NNE
Cosmos 2056 Rocket 4.3 18:00:54 10° SSE 18:05:11 28° E 18:09:29 10° NE
Cosmos 2219 Rocket 2.4 18:00:51 10° NNW 18:06:29 58° NE 18:12:06 10° SE
COSMOS 2428 3.3 18:01:25 10° NNW 18:06:49 40° NE 18:12:12 10° ESE
Cosmos 1459 Rocket 4.3 18:03:18 10° N 18:09:05 44° ENE 18:14:51 10° SE
Cosmos 1833 4.5 18:04:03 10° S 18:09:20 45° ESE 18:14:41 10° NE
Cosmos 1707 3.2 18:05:56 10° N 18:09:32 38° ENE 18:13:06 10° SE
CZ-4 R/B 1.2 18:06:03 10° SSE 18:09:50 66° ENE 18:13:41 10° N
Feng Yun 1-1 Rocket 4.3 18:05:52 10° SSE 18:11:17 62° ENE 18:16:52 10° N
Cosmos 1666 Rocket 3.5 18:08:21 10° S 18:12:44 85° E 18:17:08 10° NNE
Cosmos 1933 Rocket 4.4 18:09:53 10° SSE 18:13:33 27° E 18:17:14 10° NNE
USA 307 3.1 18:10:08 10° WNW 18:13:53 56° SSW 18:17:38 10° SE
USA 305 3.0 18:10:18 10° WNW 18:14:04 59° SSW 18:17:48 10° SE
CENTAUR R/B 3.4 18:08:34 10° NW 18:16:21 63° NE 18:25:12 10° ESE
CSL-04 Debris 4.5 18:12:23 10° SE 18:17:33 48° ENE 18:22:46 10° N
USA 281 3.3 18:12:59 10° NNE 18:19:36 87° ESE 18:26:12 10° SSW
Geosat 4.4 18:14:57 10° ESE 18:19:44 46° NE 18:24:32 10° NNW
Okean 1-7 3.3 18:16:15 10° N 18:20:32 49° ENE 18:24:46 10° SSE
Resurs 01 Rocket 2.9 18:17:31 10° ESE 18:20:56 22° ENE 18:24:21 10° N
Cosmos 1862 Rocket 3.9 18:16:35 10° NNW 18:21:02 72° W 18:25:28 10° S
Cosmos 1802 Rocket 4.3 18:16:14 10° N 18:22:11 45° ENE 18:28:11 10° SE
SL-16 R/B 4.2 18:18:53 10° NW 18:23:49 32° WSW 18:28:45 10° SSW
Meteor 1-23 Rocket 4.2 18:20:14 10° NNW 18:25:49 88° W 18:31:23 10° S
Cosmos 2082 Rocket 4.3 18:22:27 10° W 18:27:14 27° NW 18:32:02 10° NNE
Cosmos 1420 Rocket 4.4 18:23:02 10° S 18:27:53 39° ESE 18:32:43 10° NE
Okean 3 3.5 18:26:03 10° N 18:30:14 61° ENE 18:34:25 10° SSE
Cosmos 1633 Rocket 3.3 18:29:19 10° SSW 18:33:42 74° W 18:38:08 10° N
Iridium 4 Rocket 3.8 18:30:20 10° NNE 18:34:07 30° ENE 18:37:44 10° SE
Cosmos 1674 2.6 18:30:54 10° N 18:34:35 58° ENE 18:38:14 10° SSE
Cosmos 2360 Rocket 3.2 18:31:07 10° NW 18:36:35 49° WSW 18:41:59 10° S
Cosmos 2098 Rocket 4.2 18:34:40 10° SSE 18:39:24 38° E 18:45:05 10° NNE
Cosmos 1437 Rocket 2.8 18:35:27 10° S 18:39:30 84° E 18:43:35 10° NNE
Cosmos 676 Rocket 4.0 18:37:34 10° NNW 18:42:49 78° ENE 18:48:03 10° SSE
Cosmos 2016 Rocket 4.1 18:37:54 10° N 18:43:53 53° ENE 18:49:50 10° SSE
SL-16 R/B 3.9 18:41:14 10° NNW 18:45:09 18° NNE 18:48:40 11° ENE
USA 308 3.8 18:41:56 10° WNW 18:45:25 36° SW 18:48:34 12° SSE
Cosmos 1703 Rocket 3.5 18:41:12 10° N 18:45:42 74° ENE 18:50:07 10° SSE
BREEZE-M DEB (TANK) 4.1 18:42:13 10° WSW 18:45:57 70° SSE 18:59:05 10° E
Resurs 1-3 3.5 18:42:40 10° SSE 18:47:00 70° ENE 18:51:23 10° N
Cosmos 2123 Rocket 4.3 18:41:19 10° SSE 18:47:13 45° E 18:53:11 10° NNE
Okean-O 2.8 18:44:00 10° SSE 18:48:18 54° ENE 18:52:39 10° N
Cosmos 2173 Rocket 4.0 18:43:39 10° N 18:50:05 86° E 18:56:28 10° S
BREEZE M DEB (TANK) 2.3 18:49:29 10° WSW 18:52:02 42° SSE 18:52:43 31° ESE
Cosmos 2100 Rocket 4.1 18:49:11 10° N 18:55:36 85° W 19:01:57 10° S
Landsat 5 4.2 18:52:26 10° NE 18:55:46 27° E 18:57:17 21° SE
Cosmos 1741 Rocket 4.5 18:50:56 10° NNW 18:55:57 43° ENE 18:59:05 21° ESE
Cosmos 1000 Rocket 4.4 18:50:19 10° S 18:56:26 75° E 19:02:34 10° NNE
USA 215 3.7 18:51:09 10° ENE 18:57:35 62° NNW 19:04:01 10° W
EXPRESS MD2 4.4 18:56:55 10° WSW 18:58:18 15° SSW 18:59:07 13° S
Cosmos 1470 Rocket 4.0 18:55:08 10° SSW 18:59:34 66° WNW 19:04:03 10° N
Cosmos 2242 Rocket 3.7 18:56:12 10° N 19:00:47 62° ENE 19:04:48 13° SSE
Cosmos 1733 3.6 18:58:04 13° SSE 19:01:03 37° E 19:04:34 10° NNE
Okean O Rocket 2.7 18:57:48 10° S 19:02:03 46° W 19:06:19 10° NNW
Cosmos 1954 Rocket 4.4 19:01:28 10° NNW 19:06:38 64° WSW 19:11:49 10° S
Cosmos 1726 2.6 19:08:38 33° E 19:08:39 33° E 19:11:50 10° NNE
Meteor 1-21 4.4 19:04:48 10° NNW 19:10:25 77° W 19:16:02 10° S
NOSS 0 Rocket 3.9 19:05:25 10° NNW 19:11:38 71° NE 19:15:43 22° SE
Landsat 7 4.2 19:06:58 10° S 19:11:39 66° WSW 19:16:22 10° NNW
CARTOSAT-1 4.1 19:12:34 30° ESE 19:14:01 40° ENE 19:18:03 10° N
ADEOS Rocket 4.3 19:11:23 20° E 19:14:03 26° NE 19:19:33 10° N
Helios 1B 4.5 19:10:10 10° NNE 19:14:30 66° ESE 19:18:48 10° S
Cosmos 968 Rocket 4.4 19:10:53 10° N 19:15:30 31° NE 19:17:11 26° E
Exosat Rocket 3.7 19:10:45 10° SSW 19:15:54 85° ESE 19:22:34 10° NNE
USA 229 DEB 4.4 19:09:49 10° WSW 19:16:04 51° NNW 19:22:57 10° NE
USA 229 4.4 19:09:55 10° WSW 19:16:09 52° NNW 19:23:02 10° NE
Terra 3.4 19:18:08 18° ENE 19:18:37 18° ENE 19:21:49 10° NNE
SPOT 5 3.9 19:18:20 24° ENE 19:19:03 25° ENE 19:22:56 10° N
ISS -3.9 19:16:04 10° WSW 19:19:25 75° SSE 19:20:08 51° E
SL-27 R/B 2.1 19:16:06 10° SSW 19:19:26 89° E 19:22:43 10° NNE
Cosmos 2237 Rocket 2.4 19:17:43 10° NNW 19:23:17 55° NE 19:25:46 31° ESE
CSL-04 Rocket 4.1 19:18:27 10° S 19:23:58 64° WSW 19:29:29 10° NNW
Ariane Rocket 3.6 19:22:38 31° E 19:24:06 37° ENE 19:28:46 10° N
IRS-1A Rocket 4.5 19:21:15 25° SE 19:24:37 57° ENE 19:30:22 10° N
Cosmos 1975 2.9 19:20:52 10° SSW 19:24:48 75° W 19:28:48 10° N
SPOT 3 Rocket 4.4 19:25:00 28° E 19:26:13 31° ENE 19:30:46 10° N
ERS-1 Rocket 4.1 19:26:33 25° ENE 19:27:18 26° ENE 19:31:25 10° N
Cosmos 1626 4.1 19:24:13 10° NNW 19:27:19 28° W 19:30:23 10° SSW
Cosmos 1818 4.3 19:23:20 10° NW 19:28:36 50° WSW 19:32:28 18° S
Cosmos 2061 Rocket 4.0 19:22:19 10° N 19:28:48 87° E 19:34:58 11° S
USA 186 3.8 19:27:13 10° SSW 19:29:53 27° W 19:32:36 10° NW
Meteor 2-10 3.8 19:26:44 10° S 19:31:44 69° E 19:36:47 10° NNE
Spot 2 Rocket 4.4 19:34:35 29° ENE 19:35:16 30° ENE 19:39:40 10° N
Cosmos 2333 Rocket 4.3 19:34:55 10° NW 19:39:33 25° WSW 19:44:08 10° SSW
Cosmos 2233 Rocket 3.9 19:33:47 10° N 19:39:58 82° E 19:44:06 22° SSE
CZ-4C R/B 3.7 19:35:19 10° NW 19:41:17 38° NNE 19:45:25 22° ENE
MOS 1 4.2 19:39:27 26° SSE 19:42:51 86° ENE 19:48:35 10° NNW
Cosmos 1980 3.6 19:38:16 10° NNW 19:43:59 77° ENE 19:46:05 40° SE
Cosmos 1805 3.1 19:43:24 35° S 19:44:56 88° W 19:48:47 10° N
CZ-4 R/B 4.3 19:43:15 10° WSW 19:45:10 13° W 19:47:07 10° WNW
SL-14 R/B 3.4 19:42:14 10° NNW 19:46:05 70° W 19:47:11 43° SSW
Meteor 2-5 Rocket 4.4 19:41:15 10° N 19:46:34 37° ENE 19:47:23 35° E
Cosmos 2056 Rocket 4.3 19:42:03 10° SW 19:47:02 51° WNW 19:52:02 10° NNE
NOSS 3-2 (A) 4.3 19:40:33 10° NW 19:47:51 66° SW 19:53:10 25° SSE
Cosmos 2219 Rocket 3.9 19:45:16 10° NW 19:50:08 30° WSW 19:54:59 10° SSW
MetOp-A 4.0 19:48:17 38° SSE 19:50:25 82° ENE 19:55:41 10° NNW
COSMOS 2428 3.6 19:45:44 10° NW 19:51:11 46° WSW 19:55:09 18° S
BREEZE-M DEB (TANK) 2.8 19:47:43 10° W 19:52:45 60° SSW 19:52:45 60° SSW
MetOp-B 4.0 19:51:49 44° SE 19:53:30 74° ENE 19:58:52 10° NNW
PKM 3.6 19:50:12 10° WNW 19:54:02 84° NNE 19:54:06 83° ENE
SPOT 1/Viking Rocket 4.1 19:50:10 17° S 19:54:07 56° W 19:59:16 10° NNW
ATLAS 3B R/B 4.3 19:48:13 10° WNW 19:54:35 31° N 20:01:00 11° ENE
NOSS 3-2 (C) 4.0 19:49:00 10° NW 19:56:19 87° SW 20:00:12 36° SE
SJ 16-02 3.3 19:53:30 10° N 19:56:03 17° NE 19:56:03 17° NE
Resurs 01 Rocket 2.2 19:54:50 26° SSW 19:57:07 54° W 20:01:28 10° NNW
Cosmos 1869 Rocket 4.3 19:56:03 10° SSW 20:00:15 52° WNW 20:04:31 10° N
Okean 2 4.4 19:57:15 10° NNW 20:01:07 43° W 20:02:56 26° SSW
Cosmos 1850 Rocket 4.4 19:56:05 10° NNW 20:01:21 63° WSW 20:03:29 35° S
Cosmos 2297 Rocket 2.9 20:08:56 38° ENE 20:08:56 38° ENE 20:12:40 10° NE
CENTAUR R/B 3.8 19:59:22 10° NW 20:07:16 53° WSW 20:12:45 24° S
H-2A R/B 2.5 20:08:14 80° ENE 20:08:14 80° ENE 20:12:39 10° NNW
USA 238 DEB 3.8 20:02:18 10° NW 20:09:34 88° SW 20:12:16 45° SE
USA 238 3.8 20:02:24 10° NW 20:09:40 89° SW 20:12:21 45° SE
Cosmos 482 Debris 4.4 20:05:29 10° W 20:10:31 76° NW 20:10:31 76° NW
Cosmos 1110 Rocket 3.8 20:12:50 66° SSE 20:13:27 75° ESE 20:18:39 10° NNE
BREEZE-M DEB (TANK) 3.0 20:14:58 10° WNW 20:21:28 73° SSW 20:21:44 71° SSE
Cosmos 2227 Rocket 4.0 20:26:17 18° NE 20:26:17 18° NE 20:27:50 10° NE
Cosmos 1452 Rocket 3.7 20:19:31 10° SSW 20:24:47 71° WNW 20:30:05 10° NNE
SL-16 R/B 2.3 20:24:50 10° NNW 20:30:30 60° NE 20:30:33 60° ENE
Cosmos 1331 Rocket 3.9 20:33:34 83° NNW 20:33:34 83° NNW 20:38:40 10° NNE
Cosmos 1464 Rocket 3.9 20:28:13 10° N 20:34:35 75° ENE 20:35:08 70° ESE
Cosmos 2221 Rocket 4.2 20:32:38 10° NNW 20:36:40 55° WNW 20:36:40 55° WNW
USA 215 3.7 20:37:37 35° ENE 20:40:11 56° N 20:46:34 10° WNW
Meteor 1-12 Rocket 4.2 20:41:42 75° NE 20:41:42 75° NE 20:47:04 10° NNE
Cosmos 1674 Rocket 4.3 20:37:03 10° NNW 20:40:34 51° NW 20:40:34 51° NW
Meteor 1-15 Rocket 4.2 20:43:09 73° NE 20:43:09 73° NE 20:48:33 10° NNE
Cosmos 1726 4.5 20:42:27 18° W 20:43:22 20° WNW 20:46:05 10° NNW
Cosmos 1733 Rocket 4.0 20:46:06 45° NW 20:46:06 45° NW 20:49:42 10° N
Cosmos 1891 Rocket 4.5 20:40:06 10° NNW 20:46:12 75° W 20:47:03 64° SSW
Terra 2.5 20:56:53 51° NNW 20:56:53 51° NNW 21:00:28 10° NNW
ISS -0.5 20:52:53 10° W 20:53:05 11° W 20:53:05 11° W
SPOT 5 3.6 20:57:30 46° WNW 20:57:30 46° WNW 21:01:28 10° NNW
Cosmos 968 Rocket 4.1 20:52:31 10° NNW 20:57:12 49° W 20:57:12 49° W
ADEOS Rocket 3.0 20:58:19 76° SSW 20:58:46 82° WSW 21:05:43 10° NNW
Ariane Rocket 4.1 21:02:48 37° WSW 21:03:04 37° W 21:07:48 10° NNW
SPOT 3 Rocket 4.3 21:05:38 48° W 21:05:38 48° W 21:10:31 10° NNW
ERS-1 Rocket 3.7 21:06:30 51° WNW 21:06:30 51° WNW 21:10:45 10° NNW
ARIANE 5 R/B 4.4 21:08:09 26° N 21:08:09 26° N 21:10:10 10° N
Cosmos 2237 Rocket 3.5 21:02:11 10° NW 21:07:06 31° WSW 21:07:37 31° WSW
H-2A R/B 4.4 21:06:08 10° NNE 21:07:07 16° NNE 21:07:07 16° NNE
Spot 2 Rocket 4.4 21:14:44 45° WNW 21:14:44 45° WNW 21:19:00 10° NNW
Meteor 1-24 Rocket 4.2 21:09:19 10° NNW 21:14:51 60° W 21:14:51 60° W
Cosmos 1634 Rocket 4.5 21:11:25 10° N 21:16:28 50° NE 21:16:28 50° NE
ATLAS CENTAUR R/B 3.8 21:05:24 10° WSW 21:19:19 81° NNW 21:22:21 40° NE
CZ-4C R/B 2.8 21:23:44 10° NW 21:30:34 84° NNE 21:30:34 84° NNE
Cosmos 2034 Rocket 4.3 21:27:14 10° NNW 21:32:46 59° WNW 21:32:46 59° WNW
SJ 16-02 3.5 21:31:09 10° NNW 21:32:57 24° NNW 21:32:57 24° NNW
Cosmos 2344 4.3 21:28:20 10° NW 21:36:13 55° NNE 21:38:55 44° ENE
Cosmos 1943 4.2 21:34:57 10° NNW 21:38:48 42° N 21:38:48 42° N
ATLAS 3B R/B 3.6 21:40:01 10° NW 21:47:08 45° NNE 21:48:14 43° NE
Cosmos 2297 Rocket 3.5 21:50:34 35° WNW 21:51:27 37° NW 21:56:42 10° NNE
Cosmos 2227 Rocket 3.5 22:08:01 36° NNW 22:08:01 36° NNW 22:12:01 10° NNE
SL-16 R/B 4.0 22:09:28 10° NW 22:12:26 24° WNW 22:12:26 24° WNW
USA 215 3.9 22:24:56 49° NW 22:24:56 49° NW 22:29:33 10° WNW
NOSS 3-1 (C) 4.5 22:19:11 10° NW 22:25:46 49° NNE 22:25:50 49° NNE
ATLAS 2AS CENTAUR R/B 4.2 22:53:28 28° ENE 22:53:28 28° ENE 22:56:37 10° NE
Cosmos 2263 Rocket 4.0 23:04:25 26° N 23:04:25 26° N 23:06:54 10° NNE
CZ-4C R/B 4.5 23:12:36 10° WNW 23:15:44 24° WNW 23:15:44 24° WNW
SL-16 R/B 4.5 23:26:59 20° ENE 23:27:58 21° NE 23:32:25 10° N
NOSS 3-1 (A) 4.4 23:21:22 10° NW 23:27:11 54° N 23:27:11 54° N
ATLAS 3B R/B 3.8 23:30:57 10° NW 23:35:28 40° NW 23:35:28 40° NW
Cosmos 2082 Rocket 4.1 23:42:01 10° NNW 23:46:11 25° NNE 23:46:11 25° NNE
